Location: Unspecified
(0.0000°N, 0.0000°E)
Time: 06:08:27
(UTC+00:00)

Envisat - Pass Details

Date: 02 July 2018
Orbit: 764 x 766 km, 98.1° (Epoch: 19 October)

Event Time Altitude Azimuth Distance (km) Brightness Sun altitude
Exits shadow 19:24:53 34° 122° (ESE) 1,252 3.5 -18.5°
Maximum altitude 19:26:29 44° 78° (ENE) 1,047 3.3 -18.9°
Drops below altitude 10° 19:31:16 10° 7° (N) 2,291 5.7 -20.0°
Sets 19:33:39 0° 0° (N) 3,214 6.6 -20.5°
